Location: Chemnitz
(49.5500°N, 11.5830°E)
Time: 14:53:58
(UTC+01:00)

ISS - Pass Details

Date: 10 January 2018
Orbit: 402 x 407 km, 51.6° (Epoch: 18 January)

Event Time Altitude Azimuth Distance (km) Brightness Sun altitude
Exits shadow 04:58:42 14° 81° (E) 1,227 -0.6 -29.8°
Drops below altitude 10° 04:59:19 10° 84° (E) 1,468 -0.1 -29.7°
Sets 05:01:25 0° 88° (E) 2,329 1.3 -29.3°
